datetime,inflow
1993-03-23,194.48
1993-03-24,226.21
1993-03-25,272.98
1993-03-26,
1993-03-27,
1993-03-28,
1993-03-29,405.15
1993-03-30,320.3
1993-03-31,250.48
1993-04-01,250.27
1993-04-02,318.23
1993-04-03,274.74
1993-04-04,257.76
1993-04-05,195.84
1993-04-06,275.23
1993-04-07,261.65
1993-04-08,261.46
1993-04-09,279.62
1993-04-10,294.91
1993-04-11,280.98
1993-04-12,180.44
1993-04-13,408.88
1993-04-14,394.63
1993-04-15,390.83
1993-04-16,369.97
1993-04-17,360.9
1993-04-18,383.29
1993-04-19,437.29
1993-04-20,246.12
1993-04-21,334.72
1993-04-22,277.77
1993-04-23,354.7
1993-04-24,495.97
1993-04-25,449.25
1993-04-26,427.4
1993-04-27,473.1
1993-04-28,559.3
1993-04-29,597.37
1993-04-30,619.9
1993-05-01,598.48
1993-05-02,535.52
1993-05-03,549.61
1993-05-04,674.1
1993-05-05,1072.81
1993-05-06,758.64
1993-05-07,794.06
1993-05-08,814.83
1993-05-09,545.8
1993-05-10,532.56
1993-05-11,614.48
1993-05-12,1047.48
1993-05-13,1462.41
1993-05-14,2066.5
1993-05-15,1548.3
1993-05-16,1753.74
1993-05-17,2264.89
1993-05-18,2412.87
1993-05-19,2517.75
1993-05-20,2574.72
1993-05-21,2687.04
1993-05-22,3043.88
1993-05-23,3146.97
1993-05-24,2851.68
1993-05-25,2926.74
1993-05-26,2701.67
1993-05-27,2592.25
1993-05-28,2742.78
1993-05-29,1670.66
1993-05-30,2317.89
1993-05-31,2933.81
1993-06-01,2793.96
1993-06-02,2517.98
1993-06-03,2164.39
1993-06-04,1529.87
1993-06-05,1473.07
1993-06-06,1581.38
1993-06-07,1128.43
1993-06-08,1837.2
1993-06-09,1389.82
1993-06-10,1330.48
1993-06-11,1433.48
1993-06-12,1662.89
1993-06-13,1848.73
1993-06-14,1867.31
1993-06-15,1361.39
1993-06-16,1518.06
1993-06-17,1653.85
1993-06-18,2061.75
1993-06-19,1463.24
1993-06-20,1497.12
1993-06-21,1630.18
1993-06-22,1618.05
1993-06-23,1526.2
1993-06-24,1417.7
1993-06-25,1411.16
1993-06-26,1506.64
1993-06-27,1394.5
1993-06-28,1400.72
1993-06-29,1407.77
1993-06-30,1349.73
1993-07-01,1311.68
1993-07-02,1163.57
1993-07-03,997.27
1993-07-04,982.72
1993-07-05,929.01
1993-07-06,821.4
1993-07-07,625.33
1993-07-08,549.47
1993-07-09,492.67
1993-07-10,509.11
1993-07-11,441.62
1993-07-12,454.95
1993-07-13,417.93
1993-07-14,397.94
1993-07-15,330.76
1993-07-16,305.59
1993-07-17,263.28
1993-07-18,342.41
1993-07-19,299.78
1993-07-20,290.03
1993-07-21,255.88
1993-07-22,232.35
1993-07-23,181.38
1993-07-24,502.17
1993-07-25,395.06
1993-07-26,210.67
1993-07-27,391.45
1993-07-28,371.88
1993-07-29,293.03
1993-07-30,243.09
1993-07-31,244.23
1993-08-01,204.82
1993-08-02,239.19
1993-08-03,84.06
1993-08-04,543.72
1993-08-05,166.37
1993-08-06,141.8
1993-08-07,152.88
1993-08-08,187.74
1993-08-09,203.63
1993-08-10,175.51
1993-08-11,181.16
1993-08-12,123.07
1993-08-13,164.32
1993-08-14,146.64
1993-08-15,138.2
1993-08-16,131.85
1993-08-17,119.66
1993-08-18,115.93
1993-08-19,113.26
1993-08-20,128.95
1993-08-21,136.07
1993-08-22,144.14
1993-08-23,145.39
1993-08-24,147.1
1993-08-25,150.49
1993-08-26,139.97
1993-08-27,152.92
1993-08-28,146.6
1993-08-29,148.2
1993-08-30,153.47
1993-08-31,162.41
1993-09-01,149.93
1993-09-02,156.33
1993-09-03,149.95
1993-09-04,140.64
1993-09-05,136.52
1993-09-06,134.51
1993-09-07,130.44
1993-09-08,132.22
1993-09-09,129.61
1993-09-10,124.59
1993-09-11,126.48
1993-09-12,123.88
1993-09-13,122.67
1993-09-14,126.61
1993-09-15,126.44
1993-09-16,126.27
1993-09-17,137.13
1993-09-18,139.78
1993-09-19,135.66
1993-09-20,125.82
1993-09-21,115.76
1993-09-22,114.72
1993-09-23,106.19
1993-09-24,108.62
1993-09-25,115.17
1993-09-26,108.7
1993-09-27,107.86
1993-09-28,112.87
1993-09-29,110.78
1993-09-30,111.55
1993-10-01,98.29
1993-10-02,88.72
1993-10-03,112.89
1993-10-04,113.47
1993-10-05,112.8
1993-10-06,101.07
1993-10-07,112.68
1993-10-08,153.22
1993-10-09,165.99
1993-10-10,124.7
1993-10-11,124.85
1993-10-12,195.56
1993-10-13,177.71
1993-10-14,154.3
1993-10-15,139.11
1993-10-16,143.75
1993-10-17,147.25
1993-10-18,138.99
1993-10-19,138.69
1993-10-20,129.25
1993-10-21,111.1
1993-10-22,117.51
1993-10-23,128.46
1993-10-24,119.94
1993-10-25,115.72
1993-10-26,119.57
1993-10-27,106.41
1993-10-28,99.91
1993-10-29,100.22
1993-10-30,100.05
1993-10-31,100.98
1993-11-01,103.52
1993-11-02,106.6
1993-11-03,100.51
1993-11-04,125.38
1993-11-05,117.3
1993-11-06,104.15
1993-11-07,87.24
1993-11-08,99.56
1993-11-09,83.55
1993-11-10,119.06
1993-11-11,100.08
1993-11-12,100.65
1993-11-13,103.37
1993-11-14,97.04
1993-11-15,84.96
1993-11-16,84.66
1993-11-17,102.41
1993-11-18,98.09
1993-11-19,93.72
1993-11-20,79.55
1993-11-21,88.71
1993-11-22,137.85
1993-11-23,141.97
1993-11-24,111.09
1993-11-25,115.38
1993-11-26,80.46
1993-11-27,72.39
1993-11-28,76.74
1993-11-29,110.5
1993-11-30,106.49
1993-12-01,119.76
1993-12-02,107.25
1993-12-03,107.09
1993-12-04,102.85
1993-12-05,128.9
1993-12-06,107.37
1993-12-07,85.36
1993-12-08,120.27
1993-12-09,134.32
1993-12-10,108.19
1993-12-11,112.62
1993-12-12,107.75
1993-12-13,139.4
1993-12-14,99.76
1993-12-15,126.34
1993-12-16,136.39
1993-12-17,117.76
1993-12-18,113.66
1993-12-19,104.9
1993-12-20,86.93
1993-12-21,82.43
1993-12-22,82.0
1993-12-23,77.86
1993-12-24,100.87
1993-12-25,115.0
1993-12-26,114.78
1993-12-27,110.52
1993-12-28,105.52
1993-12-29,123.78
1993-12-30,114.76
1993-12-31,92.67
1994-01-01,111.58
1994-01-02,116.02
1994-01-03,110.98
1994-01-04,107.26
1994-01-05,120.95
1994-01-06,134.71
1994-01-07,102.67
1994-01-08,93.37
1994-01-09,88.51
1994-01-10,159.88
1994-01-11,112.82
1994-01-12,93.8
1994-01-13,112.69
1994-01-14,106.01
1994-01-15,115.31
1994-01-16,101.58
1994-01-17,102.47
1994-01-18,112.02
1994-01-19,107.46
1994-01-20,102.68
1994-01-21,88.79
1994-01-22,88.29
1994-01-23,117.25
1994-01-24,122.0
1994-01-25,118.26
1994-01-26,98.38
1994-01-27,108.42
1994-01-28,118.24
1994-01-29,94.03
1994-01-30,94.01
1994-01-31,84.6
1994-02-01,89.05
1994-02-02,84.29
1994-02-03,88.85
1994-02-04,80.07
1994-02-05,119.01
1994-02-06,100.29
1994-02-07,95.11
1994-02-08,163.59
1994-02-09,129.88
1994-02-10,99.9
1994-02-11,128.77
1994-02-12,136.02
1994-02-13,86.55
1994-02-14,95.86
1994-02-15,115.91
1994-02-16,131.01
1994-02-17,121.11
1994-02-18,111.46
1994-02-19,141.4
1994-02-20,137.57
1994-02-21,112.61
1994-02-22,116.89
1994-02-23,102.32
1994-02-24,112.07
1994-02-25,112.37
1994-02-26,107.85
1994-02-27,138.4
1994-02-28,128.55
1994-03-01,118.77
1994-03-02,109.24
1994-03-03,139.05
1994-03-04,139.4
1994-03-05,124.74
1994-03-06,166.59
1994-03-07,140.98
1994-03-08,146.85
1994-03-09,141.3
1994-03-10,141.55
1994-03-11,120.53
1994-03-12,152.9
1994-03-13,179.47
1994-03-14,142.58
1994-03-15,200.86
1994-03-16,154.18
1994-03-17,165.0
1994-03-18,202.76
1994-03-19,166.18
1994-03-20,289.7
1994-03-21,237.7
1994-03-22,184.02
1994-03-23,222.47
1994-03-24,164.15
1994-03-25,147.78
1994-03-26,203.36
1994-03-27,148.12
1994-03-28,154.51
1994-03-29,171.44
1994-03-30,143.69
1994-03-31,169.72
1994-04-01,153.31
1994-04-02,209.66
1994-04-03,171.91
1994-04-04,189.0
1994-04-05,212.4
1994-04-06,177.88
1994-04-07,196.52
1994-04-08,158.08
1994-04-09,157.04
1994-04-10,202.28
1994-04-11,175.5
1994-04-12,187.1
1994-04-13,176.35
1994-04-14,193.17
1994-04-15,193.85
1994-04-16,267.15
1994-04-17,261.72
1994-04-18,408.37
1994-04-19,538.32
1994-04-20,464.32
1994-04-21,874.07
1994-04-22,599.3
1994-04-23,855.31
1994-04-24,979.94
1994-04-25,865.71
1994-04-26,735.96
1994-04-27,615.67
1994-04-28,578.54
1994-04-29,605.98
1994-04-30,533.51
1994-05-01,442.0
1994-05-02,423.05
1994-05-03,430.12
1994-05-04,382.65
1994-05-05,353.08
1994-05-06,467.47
1994-05-07,680.8
1994-05-08,903.75
1994-05-09,875.88
1994-05-10,1114.88
1994-05-11,1139.74
1994-05-12,1426.26
1994-05-13,1648.47
1994-05-14,1845.16
1994-05-15,2022.13
1994-05-16,1741.59
1994-05-17,1824.52
1994-05-18,1407.42
1994-05-19,1051.28
1994-05-20,38.35
1994-05-21,1050.91
1994-05-22,866.09
1994-05-23,927.42
1994-05-24,1141.35
1994-05-25,1359.62
1994-05-26,1262.93
1994-05-27,1050.86
1994-05-28,1083.44
1994-05-29,1434.07
1994-05-30,1084.58
1994-05-31,1147.98
1994-06-01,734.4
1994-06-02,662.45
1994-06-03,595.08
1994-06-04,613.68
1994-06-05,654.3
1994-06-06,542.35
1994-06-07,530.77
1994-06-08,529.89
1994-06-09,475.47
1994-06-10,396.8
1994-06-11,321.69
1994-06-12,302.42
1994-06-13,249.8
1994-06-14,264.11
1994-06-15,212.49
1994-06-16,222.0
1994-06-17,162.37
1994-06-18,174.68
1994-06-19,176.31
1994-06-20,179.06
1994-06-21,175.03
1994-06-22,175.53
1994-06-23,156.77
1994-06-24,152.46
1994-06-25,131.46
1994-06-26,123.77
1994-06-27,114.42
1994-06-28,124.19
1994-06-29,117.64
1994-06-30,106.85
1994-07-01,67.95
1994-07-02,93.38
1994-07-03,126.86
1994-07-04,81.08
1994-07-05,74.37
1994-07-06,74.37
1994-07-07,27.98
1994-07-08,74.36
1994-07-09,74.3
1994-07-10,80.85
1994-07-11,67.74
1994-07-12,60.62
1994-07-13,68.17
1994-07-14,60.65
1994-07-15,54.09
1994-07-16,62.59
1994-07-17,55.03
1994-07-18,45.38
1994-07-19,60.0
1994-07-20,63.45
1994-07-21,31.11
1994-07-22,49.75
1994-07-23,56.74
1994-07-24,63.8
1994-07-25,69.77
1994-07-26,43.55
1994-07-27,115.58
1994-07-28,64.15
1994-07-29,9.62
1994-07-30,57.51
1994-07-31,50.38
1994-08-01,62.98
1994-08-02,90.2
1994-08-03,36.69
1994-08-04,63.4
1994-08-05,56.27
1994-08-06,50.15
1994-08-07,56.19
1994-08-08,62.68
1994-08-09,56.62
1994-08-10,101.42
1994-08-11,82.77
1994-08-12,76.65
1994-08-13,76.64
1994-08-14,60.95
1994-08-15,77.08
1994-08-16,66.92
1994-08-17,64.34
1994-08-18,70.31
1994-08-19,68.23
1994-08-20,101.44
1994-08-21,94.31
1994-08-22,87.76
1994-08-23,82.65
1994-08-24,68.47
1994-08-25,55.79
1994-08-26,100.09
1994-08-27,10.78
1994-08-28,68.18
1994-08-29,74.73
1994-08-30,57.02
1994-08-31,54.93
1994-09-01,49.59
1994-09-02,43.84
1994-09-03,68.62
1994-09-04,68.75
1994-09-05,55.81
1994-09-06,55.74
1994-09-07,50.83
1994-09-08,52.48
1994-09-09,53.73
1994-09-10,45.66
1994-09-11,45.09
1994-09-12,54.54
1994-09-13,58.64
1994-09-14,60.15
1994-09-15,45.53
1994-09-16,48.94
1994-09-17,61.05
1994-09-18,54.8
1994-09-19,55.44
1994-09-20,35.59
1994-09-21,48.06
1994-09-22,58.52
1994-09-23,52.97
1994-09-24,59.39
1994-09-25,59.33
1994-09-26,57.75
1994-09-27,52.45
1994-09-28,52.07
1994-09-29,52.82
1994-09-30,89.92
1994-10-01,71.5
1994-10-02,58.25
1994-10-03,89.73
1994-10-04,89.91
1994-10-05,159.42
1994-10-06,171.16
1994-10-07,135.19
1994-10-08,147.0
1994-10-09,129.08
1994-10-10,128.88
1994-10-11,116.74
1994-10-12,116.38
1994-10-13,110.46
1994-10-14,116.99
1994-10-15,182.54
1994-10-16,156.63
1994-10-17,130.34
1994-10-18,189.22
1994-10-19,169.72
1994-10-20,163.19
1994-10-21,137.8
1994-10-22,131.0
1994-10-23,153.03
1994-10-24,141.51
1994-10-25,143.82
1994-10-26,149.29
1994-10-27,130.16
1994-10-28,123.36
1994-10-29,110.47
1994-10-30,99.95
1994-10-31,90.45
1994-11-01,105.54
1994-11-02,144.72
1994-11-03,105.53
1994-11-04,95.7
1994-11-05,83.79
1994-11-06,133.94
1994-11-07,126.56
1994-11-08,128.71
1994-11-09,106.09
1994-11-10,85.42
1994-11-11,104.95
1994-11-12,138.99
1994-11-13,140.21
1994-11-14,92.02
1994-11-15,78.85
1994-11-16,99.17
1994-11-17,125.67
1994-11-18,146.51
1994-11-19,165.94
1994-11-20,79.22
1994-11-21,105.61
1994-11-22,106.04
1994-11-23,71.9
1994-11-24,85.97
1994-11-25,133.65
1994-11-26,153.29
1994-11-27,92.86
1994-11-28,133.53
1994-11-29,119.95
1994-11-30,92.73
1994-12-01,99.36
1994-12-02,127.95
1994-12-03,140.01
1994-12-04,92.45
1994-12-05,120.46
1994-12-06,161.28
1994-12-07,141.13
1994-12-08,78.74
1994-12-09,72.65
1994-12-10,64.95
1994-12-11,106.61
1994-12-12,127.45
1994-12-13,103.52
1994-12-14,143.62
1994-12-15,92.76
1994-12-16,120.25
1994-12-17,93.62
1994-12-18,98.87
1994-12-19,100.89
1994-12-20,86.35
1994-12-21,120.83
1994-12-22,93.62
1994-12-23,86.02
1994-12-24,127.59
1994-12-25,120.84
1994-12-26,113.23
1994-12-27,155.58
1994-12-28,93.04
1994-12-29,86.62
1994-12-30,99.77
1994-12-31,87.63
1995-01-01,87.29
1995-01-02,58.3
1995-01-03,100.61
1995-01-04,79.46
1995-01-05,93.45
1995-01-06,107.53
1995-01-07,107.37
1995-01-08,114.02
1995-01-09,115.2
1995-01-10,135.35
1995-01-11,156.61
1995-01-12,108.48
1995-01-13,93.84
1995-01-14,107.12
1995-01-15,186.43
1995-01-16,157.8
1995-01-17,107.98
1995-01-18,107.63
1995-01-19,101.58
1995-01-20,93.84
1995-01-21,101.24
1995-01-22,79.32
1995-01-23,87.0
1995-01-24,94.81
1995-01-25,158.86
1995-01-26,49.72
1995-01-27,94.3
1995-01-28,108.57
1995-01-29,130.82
1995-01-30,87.07
1995-01-31,116.46
1995-02-01,108.81
1995-02-02,82.62
1995-02-03,87.42
1995-02-04,165.96
1995-02-05,117.1
1995-02-06,109.72
1995-02-07,95.89
1995-02-08,111.46
1995-02-09,102.26
1995-02-10,102.41
1995-02-11,131.24
1995-02-12,167.45
1995-02-13,102.42
1995-02-14,146.51
1995-02-15,109.09
1995-02-16,96.99
1995-02-17,117.08
1995-02-18,146.93
1995-02-19,132.44
1995-02-20,96.28
1995-02-21,110.91
1995-02-22,154.69
1995-02-23,118.17
1995-02-24,118.24
1995-02-25,169.59
1995-02-26,140.64
1995-02-27,155.55
1995-02-28,155.98
1995-03-01,148.69
1995-03-02,156.28
1995-03-03,141.67
1995-03-04,208.31
1995-03-05,135.64
1995-03-06,187.32
1995-03-07,112.71
1995-03-08,98.96
1995-03-09,155.32
1995-03-10,150.35
1995-03-11,389.47
1995-03-12,556.0
1995-03-13,362.93
1995-03-14,326.73
1995-03-15,296.07
1995-03-16,313.56
1995-03-17,367.73
1995-03-18,375.98
1995-03-19,478.13
1995-03-20,495.92
1995-03-21,421.47
1995-03-22,437.43
1995-03-23,385.15
1995-03-24,362.5
1995-03-25,392.57
1995-03-26,303.9
1995-03-27,364.93
1995-03-28,281.19
1995-03-29,357.65
1995-03-30,279.17
1995-03-31,95.33
1995-04-01,178.52
1995-04-02,173.7
1995-04-03,311.64
1995-04-04,223.74
1995-04-05,295.11
1995-04-06,289.66
1995-04-07,405.53
1995-04-08,423.58
1995-04-09,411.11
1995-04-10,329.99
1995-04-11,377.63
1995-04-12,335.6
1995-04-13,357.4
1995-04-14,349.09
1995-04-15,441.13
1995-04-16,351.09
1995-04-17,443.34
1995-04-18,338.67
1995-04-19,353.82
1995-04-20,417.63
1995-04-21,346.21
1995-04-22,301.25
1995-04-23,286.81
1995-04-24,304.53
1995-04-25,284.87
1995-04-26,311.26
1995-04-27,257.91
1995-04-28,333.14
1995-04-29,400.55
1995-04-30,340.48
1995-05-01,477.57
1995-05-02,461.76
1995-05-03,689.95
1995-05-04,545.02
1995-05-05,471.01
1995-05-06,558.02
1995-05-07,581.66
1995-05-08,460.92
1995-05-09,512.7
1995-05-10,530.5
1995-05-11,525.99
1995-05-12,809.92
1995-05-13,727.94
1995-05-14,747.72
1995-05-15,679.22
1995-05-16,800.45
1995-05-17,992.25
1995-05-18,861.76
1995-05-19,1077.8
1995-05-20,1095.77
1995-05-21,1648.72
1995-05-22,1460.01
1995-05-23,2087.3
1995-05-24,2420.11
1995-05-25,1472.66
1995-05-26,1535.33
1995-05-27,1074.04
1995-05-28,942.79
1995-05-29,931.61
1995-05-30,950.07
1995-05-31,931.78
1995-06-01,1184.93
1995-06-02,1545.86
1995-06-03,2337.49
1995-06-04,1786.28
1995-06-05,1709.16
1995-06-06,2060.87
1995-06-07,2390.1
1995-06-08,1790.65
1995-06-09,1710.86
1995-06-10,1428.87
1995-06-11,1280.78
1995-06-12,1971.54
1995-06-13,2271.51
1995-06-14,2693.04
1995-06-15,2651.4
1995-06-16,2394.14
1995-06-17,2113.08
1995-06-18,1914.31
1995-06-19,1901.19
1995-06-20,1819.79
1995-06-21,1567.89
1995-06-22,2028.66
1995-06-23,1822.2
1995-06-24,1543.59
1995-06-25,1817.24
1995-06-26,1743.0
1995-06-27,1796.01
1995-06-28,1777.35
1995-06-29,1715.75
1995-06-30,1542.23
1995-07-01,1591.77
1995-07-02,1376.97
1995-07-03,1469.47
1995-07-04,1744.37
1995-07-05,1400.04
1995-07-06,1079.08
1995-07-07,1049.9
1995-07-08,916.59
1995-07-09,870.79
1995-07-10,735.29
1995-07-11,840.7
1995-07-12,1418.76
1995-07-13,1343.19
1995-07-14,1063.77
1995-07-15,979.1
1995-07-16,873.1
1995-07-17,806.55
1995-07-18,745.93
1995-07-19,769.12
1995-07-20,855.95
1995-07-21,658.95
1995-07-22,549.31
1995-07-23,493.44
1995-07-24,474.83
1995-07-25,460.01
1995-07-26,411.02
1995-07-27,313.77
1995-07-28,339.78
1995-07-29,318.62
1995-07-30,262.4
1995-07-31,200.75
1995-08-01,272.54
1995-08-02,243.93
1995-08-03,229.9
1995-08-04,218.73
1995-08-05,239.21
1995-08-06,197.15
1995-08-07,169.17
1995-08-08,180.78
1995-08-09,136.18
1995-08-10,154.93
1995-08-11,160.64
1995-08-12,173.13
1995-08-13,176.15
1995-08-14,210.53
1995-08-15,141.42
1995-08-16,98.02
1995-08-17,129.78
1995-08-18,101.34
1995-08-19,107.26
1995-08-20,104.53
1995-08-21,140.99
1995-08-22,172.41
1995-08-23,170.27
1995-08-24,194.59
1995-08-25,191.37
1995-08-26,171.41
1995-08-27,134.2
1995-08-28,119.87
1995-08-29,131.55
1995-08-30,107.83
1995-08-31,98.24
1995-09-01,143.02
1995-09-02,142.38
1995-09-03,156.41
1995-09-04,141.13
1995-09-05,205.98
1995-09-06,87.45
1995-09-07,152.02
1995-09-08,142.75
1995-09-09,134.53
1995-09-10,107.26
1995-09-11,116.67
1995-09-12,80.77
1995-09-13,147.69
1995-09-14,131.91
1995-09-15,128.23
1995-09-16,122.54
1995-09-17,123.49
1995-09-18,86.57
1995-09-19,94.98
1995-09-20,130.23
1995-09-21,78.55
1995-09-22,94.43
1995-09-23,117.78
1995-09-24,106.63
1995-09-25,93.01
1995-09-26,106.76
1995-09-27,99.04
1995-09-28,114.93
1995-09-29,120.72
1995-09-30,122.08
1995-10-01,133.94
1995-10-02,113.2
1995-10-03,110.01
1995-10-04,107.76
1995-10-05,131.66
1995-10-06,107.02
1995-10-07,190.39
1995-10-08,120.67
1995-10-09,118.6
1995-10-10,61.42
1995-10-11,148.7
1995-10-12,74.5
1995-10-13,85.86
1995-10-14,109.21
1995-10-15,109.03
1995-10-16,108.97
1995-10-17,120.76
1995-10-18,97.7
1995-10-19,108.51
1995-10-20,95.84
1995-10-21,108.21
1995-10-22,108.66
1995-10-23,93.47
1995-10-24,113.34
1995-10-25,115.75
1995-10-26,126.48
1995-10-27,110.86
1995-10-28,97.25
1995-10-29,123.11
1995-10-30,83.79
1995-10-31,192.59
1995-11-01,61.92
1995-11-02,84.63
1995-11-03,84.0
1995-11-04,84.89
1995-11-05,95.24
1995-11-06,109.18
1995-11-07,84.04
1995-11-08,107.33
1995-11-09,130.72
1995-11-10,189.12
1995-11-11,95.5
1995-11-12,154.39
1995-11-13,153.2
1995-11-14,119.05
1995-11-15,153.42
1995-11-16,191.89
1995-11-17,106.28
1995-11-18,141.25
1995-11-19,162.74
1995-11-20,103.8
1995-11-21,89.65
1995-11-22,136.48
1995-11-23,122.34
1995-11-24,124.23
1995-11-25,134.78
1995-11-26,148.31
1995-11-27,134.67
1995-11-28,122.49
1995-11-29,135.56
1995-11-30,158.7
1995-12-01,123.38
1995-12-02,182.83
1995-12-03,99.91
1995-12-04,123.78
1995-12-05,170.3
1995-12-06,171.38
1995-12-07,147.4
1995-12-08,134.69
1995-12-09,137.16
1995-12-10,135.07
1995-12-11,135.65
1995-12-12,156.29
1995-12-13,221.27
1995-12-14,100.85
1995-12-15,86.78
1995-12-16,123.71
1995-12-17,147.11
1995-12-18,124.09
1995-12-19,135.81
1995-12-20,135.31
1995-12-21,75.02
1995-12-22,63.8
1995-12-23,63.21
1995-12-24,64.3
1995-12-25,76.03
1995-12-26,86.74
1995-12-27,87.71
1995-12-28,135.69
1995-12-29,111.15
1995-12-30,135.78
1995-12-31,205.27
1996-01-01,77.42
1996-01-02,87.12
1996-01-03,75.91
1996-01-04,123.47
1996-01-05,87.71
1996-01-06,183.82
1996-01-07,111.97
1996-01-08,172.28
1996-01-09,87.77
1996-01-10,100.17
1996-01-11,87.86
1996-01-12,100.17
1996-01-13,87.27
1996-01-14,75.46
1996-01-15,75.47
1996-01-16,100.67
1996-01-17,353.51
1996-01-18,87.77
1996-01-19,172.28
1996-01-20,124.37
1996-01-21,87.86
1996-01-22,111.48
1996-01-23,189.68
1996-01-24,137.0
1996-01-25,188.17
1996-01-26,100.14
1996-01-27,112.03
1996-01-28,210.03
1996-01-29,100.14
1996-01-30,162.51
1996-01-31,161.4
1996-02-01,124.63
1996-02-02,88.29
1996-02-03,100.76
1996-02-04,111.75
1996-02-05,126.15
1996-02-06,112.83
1996-02-07,125.75
1996-02-08,161.75
1996-02-09,113.78
1996-02-10,137.21
1996-02-11,88.66
1996-02-12,89.75
1996-02-13,113.68
1996-02-14,113.79
1996-02-15,124.27
1996-02-16,102.48
1996-02-17,212.29
1996-02-18,138.22
1996-02-19,101.83
1996-02-20,224.64
1996-02-21,176.37
1996-02-22,213.1
1996-02-23,139.98
1996-02-24,176.47
1996-02-25,164.44
1996-02-26,140.95
1996-02-27,89.53
1996-02-28,116.38
1996-02-29,116.11
1996-03-01,214.62
1996-03-02,215.25
1996-03-03,140.82
1996-03-04,141.51
1996-03-05,166.92
1996-03-06,179.28
1996-03-07,179.42
1996-03-08,154.66
1996-03-09,117.16
1996-03-10,142.68
1996-03-11,168.28
1996-03-12,142.93
1996-03-13,255.32
1996-03-14,242.71
1996-03-15,145.24
1996-03-16,173.47
1996-03-17,120.74
1996-03-18,173.73
1996-03-19,263.66
1996-03-20,159.99
1996-03-21,187.1
1996-03-22,199.85
1996-03-23,303.55
1996-03-24,259.09
1996-03-25,168.21
1996-03-26,132.11
1996-03-27,168.21
1996-03-28,157.44
1996-03-29,266.8
1996-03-30,169.84
1996-03-31,193.42
1996-04-01,157.58
1996-04-02,369.51
1996-04-03,275.83
1996-04-04,149.11
1996-04-05,352.53
1996-04-06,277.62
1996-04-07,238.85
1996-04-08,467.39
1996-04-09,455.81
1996-04-10,636.61
1996-04-11,776.68
1996-04-12,772.27
1996-04-13,726.18
1996-04-14,621.19
1996-04-15,365.37
1996-04-16,268.48
1996-04-17,973.81
1996-04-18,602.49
1996-04-19,709.03
1996-04-20,434.36
1996-04-21,392.78
1996-04-22,574.69
1996-04-23,356.25
1996-04-24,555.83
1996-04-25,543.47
1996-04-26,503.68
1996-04-27,675.97
1996-04-28,732.32
1996-04-29,519.79
1996-04-30,747.47
1996-05-01,755.67
1996-05-02,623.7
1996-05-03,921.38
1996-05-04,963.74
1996-05-05,975.26
1996-05-06,1232.08
1996-05-07,1476.24
1996-05-08,1208.27
1996-05-09,1345.99
1996-05-10,1267.55
1996-05-11,1322.84
1996-05-12,1542.22
1996-05-13,1959.23
1996-05-14,2078.69
1996-05-15,2207.0
1996-05-16,2395.93
1996-05-17,3165.07
1996-05-18,3059.97
1996-05-19,3525.77
1996-05-20,2507.0
1996-05-21,1837.68
1996-05-22,1507.79
1996-05-23,1858.74
1996-05-24,2010.23
1996-05-25,1715.0
1996-05-26,1409.02
1996-05-27,1448.91
1996-05-28,1541.41
1996-05-29,1619.29
1996-05-30,1192.76
1996-05-31,1359.97
1996-06-01,569.77
1996-06-02,1591.0
1996-06-03,2203.62
1996-06-04,2647.51
1996-06-05,1859.21
1996-06-06,2020.62
1996-06-07,1978.5
1996-06-08,1724.61
1996-06-09,1702.63
1996-06-10,1576.11
1996-06-11,1811.73
1996-06-12,1083.86
1996-06-13,788.4
1996-06-14,936.79
1996-06-15,1556.58
1996-06-16,1495.95
1996-06-17,1098.15
1996-06-18,840.52
1996-06-19,638.85
1996-06-20,544.92
1996-06-21,599.87
1996-06-22,907.92
1996-06-23,785.91
1996-06-24,609.8
1996-06-25,731.3
1996-06-26,1109.95
1996-06-27,940.39
1996-06-28,746.78
1996-06-29,880.39
1996-06-30,565.28
1996-07-01,677.05
1996-07-02,646.8
1996-07-03,352.86
1996-07-04,522.76
1996-07-05,445.46
1996-07-06,477.22
1996-07-07,358.22
1996-07-08,325.93
1996-07-09,293.99
1996-07-10,295.99
1996-07-11,340.84
1996-07-12,146.04
1996-07-13,219.12
1996-07-14,223.12
1996-07-15,299.73
1996-07-16,99.39
1996-07-17,292.96
1996-07-18,251.45
1996-07-19,173.77
1996-07-20,99.47
1996-07-21,220.8
1996-07-22,88.17
1996-07-23,122.28
1996-07-24,109.15
1996-07-25,105.95
1996-07-26,134.66
1996-07-27,209.11
1996-07-28,42.21
1996-07-29,163.04
1996-07-30,132.76
1996-07-31,116.46
1996-08-01,102.82
1996-08-02,117.41
1996-08-03,105.14
1996-08-04,105.62
1996-08-05,88.81
1996-08-06,30.66
1996-08-07,75.51
1996-08-08,118.7
1996-08-09,91.97
1996-08-10,93.83
1996-08-11,67.59
1996-08-12,117.35
1996-08-13,114.31
1996-08-14,71.8
1996-08-15,71.28
1996-08-16,94.82
1996-08-17,109.29
1996-08-18,108.63
1996-08-19,78.22
1996-08-20,92.68
1996-08-21,80.43
1996-08-22,80.41
1996-08-23,65.64
1996-08-24,79.6
1996-08-25,81.96
1996-08-26,128.69
1996-08-27,121.48
1996-08-28,106.21
1996-08-29,92.08
1996-08-30,78.82
1996-08-31,90.76
1996-09-01,120.5
1996-09-02,107.24
1996-09-03,78.35
1996-09-04,92.31
1996-09-05,61.91
1996-09-06,78.39
1996-09-07,120.23
1996-09-08,90.84
1996-09-09,91.19
1996-09-10,77.93
1996-09-11,105.5
1996-09-12,129.05
1996-09-13,187.38
1996-09-14,159.65
1996-09-15,159.0
1996-09-16,116.86
1996-09-17,242.76
1996-09-18,173.54
1996-09-19,101.3
1996-09-20,140.84
1996-09-21,142.2
1996-09-22,154.66
1996-09-23,126.64
1996-09-24,99.77
1996-09-25,126.35
1996-09-26,84.86
1996-09-27,83.56
1996-09-28,125.76
1996-09-29,112.0
1996-09-30,128.85
1996-10-01,126.36
1996-10-02,125.91
1996-10-03,155.51
1996-10-04,55.7
1996-10-05,155.18
1996-10-06,111.08
1996-10-07,126.01
1996-10-08,97.63
1996-10-09,111.8
1996-10-10,85.03
1996-10-11,111.07
1996-10-12,124.64
1996-10-13,112.18
1996-10-14,111.7
1996-10-15,94.14
1996-10-16,95.89
1996-10-17,69.02
1996-10-18,123.23
1996-10-19,136.57
1996-10-20,149.04
1996-10-21,135.58
1996-10-22,80.8
1996-10-23,150.33
1996-10-24,145.99
1996-10-25,188.4
1996-10-26,75.49
1996-10-27,172.96
1996-10-28,118.96
1996-10-29,172.38
1996-10-30,157.12
1996-10-31,158.91
1996-11-01,130.86
1996-11-02,144.19
1996-11-03,143.04
1996-11-04,146.13
1996-11-05,303.14
1996-11-06,151.95
1996-11-07,105.08
1996-11-08,48.83
1996-11-09,146.8
1996-11-10,145.05
1996-11-11,161.14
1996-11-12,145.78
1996-11-13,146.65
1996-11-14,158.27
1996-11-15,128.88
1996-11-16,187.67
1996-11-17,94.61
1996-11-18,219.7
1996-11-19,199.66
1996-11-20,170.23
1996-11-21,157.92
1996-11-22,185.21
1996-11-23,435.37
1996-11-24,144.23
1996-11-25,171.86
1996-11-26,157.4
1996-11-27,31.77
1996-11-28,101.2